Location: Castelnau
(43.6639°N, 0.8431°W)
Time: 22:46:55
(UTC+00:00)

BREEZE-M DEB (TANK) - Pass Details

Date: 13 January 2026
Orbit: 326 x 14637 km, 49.5° (Epoch: 11 February)

Event Time Altitude Azimuth Distance (km) Brightness Sun altitude
Exits shadow 06:53:50 10° 303° (WNW) 1,475 4.9 -7.5°
Reaches altitude 10° 06:53:52 10° 303° (WNW) 1,457 4.8 -7.5°
Maximum altitude 06:56:35 58° 25° (NNE) 689 3.8 -7.0°
Drops below altitude 10° 07:03:20 10° 105° (ESE) 3,565 9.2 -5.9°
Sets 07:09:00 0° 109° (ESE) 6,083 11.3 -5.0°
